Regional Weather Roundup
Issued by NWS Portland, ME

Home | Current Version | Previous Version | Text Only | Print | Product List | Glossary On
Versions: 1 2 3 4 5 6 7 8 9 10 11 12 13 14 15 16 17 18 19 20 21 22 23 24 25 26 27 28 29 30 31 32 33 34 35 36 37 38 39 40 41 42 43 44 45 46 47 48 49 50
000
ASUS41 KGYX 302210
RWRGYX
WEATHER ROUNDUP FOR MAINE AND NEW HAMPSHIRE
NATIONAL WEATHER SERVICE GRAY ME
600 PM EDT WED JUL 30 2014

MEZ002-005-006-010-012-015-018-020-021-024-026-027-029-302300-
MAINE

CITY           SKY/WX    TMP DP  RH WIND       PRES   REMARKS
PORTLAND       MOSUNNY   69  62  78 S6        29.99R
SANFORD        MOSUNNY   72  57  60 S3        30.00S
BAR HARBOR     SUNNY     66  63  88 SE6       30.01R
WISCASSET      MOSUNNY   68  63  84 E3        30.01R
ROCKLAND       CLOUDY    63  61  94 CALM      30.00R VSB 1/4
FRYEBURG       PTSUNNY   74  56  53 CALM      29.99S
LEWISTONAUBURN MOSUNNY   72  59  64 SE3       29.99S
AUGUSTA        SUNNY     71  58  63 CALM      30.01R
WATERVILLE     PTSUNNY   70  61  73 CALM      29.97R
BANGOR         CLOUDY    71  57  61 S9        30.00R
GREENVILLE       N/A     63  58  83 CALM      30.00R
MILLINOCKET    CLOUDY    72  61  68 CALM      29.99S
HOULTON        PTSUNNY   70  62  76 SE7       29.98S
PRESQUE ISLE   PTSUNNY   72  54  53 N6        30.00S
FRENCHVILLE    PTSUNNY   67  53  61 S5        30.02R
CARIBOU        CLOUDY    72  54  53 CALM      30.00S
$$

NHZ002-005-008-009-011-012-014-302300-
NEW HAMPSHIRE

CITY           SKY/WX    TMP DP  RH WIND       PRES   REMARKS
PORTSMOUTH     PTSUNNY   68  62  79 E7        29.98R
ROCHESTER      MOSUNNY   73  60  63 SE6       29.98S
NASHUA         PTSUNNY   76  55  47 CALM      30.00R
MANCHESTER     PTSUNNY   76  51  41 VRB6      29.97S
CONCORD        CLOUDY    73  51  46 SW5       29.99R
LACONIA          N/A     73  52  46 W3        29.98S
PLYMOUTH       PTSUNNY   73  53  49 CALM      29.99S
BERLIN         CLOUDY    71  53  52 S3        30.00R
WHITEFIELD     CLOUDY    71  49  45 CALM      30.00R
JAFFREY        MOSUNNY   71  49  45 VRB3      30.02S
LEBANON        MOSUNNY   74  50  42 CALM      29.98S
MT WASHINGTON  PTSUNNY   45  39  81 W9          N/A
$$

VTZ005-007-008-302300-
VERMONT

CITY           SKY/WX    TMP DP  RH WIND       PRES   REMARKS
ST JOHNSBURY     N/A     71  51  49 MISG      29.97S
MONTPELIER     MOSUNNY   71  52  50 S6        30.03S
BURLINGTON     PTSUNNY   74  50  42 S8        29.96R
$$

MAZ007-012-024-CTZ003-RIZ002-NYZ038-NYZ072-302300-
SOUTHERN NEW ENGLAND AND NY

CITY           SKY/WX    TMP DP  RH WIND       PRES   REMARKS
BOSTON         MOSUNNY   72  54  53 E10       29.99R
WORCESTER      SUNNY     73  49  42 W8        30.02R
NANTUCKET      SUNNY     71  59  65 SW8       30.02R
PROVIDENCE     MOSUNNY   75  52  44 SW10      30.00R
HARTFORD       MOSUNNY   78  48  34 SW8       29.98S
ALBANY         PTSUNNY   74  54  49 S8        29.99R
NEW YORK CITY  PTSUNNY   79  50  36 SW15      29.99F
$$

ANZ081-ANZ082-ANZ150-NHZ014-MEZ023>029-302300-
COASTAL MARINE OBSERVATIONS

STATION/POSITION TIME  TEMP    WIND        PRES    WAVE
                       AIR SEA DIR/SP/G            HT/PER
                 (UTC) (F)     (DEG/KT/KT) (MB)    (FT/S)
MOUNT DESERT ROC 2200   58                 1016.2R
MATINICUS ROCK   2100          110/  9/ 10 1015.2F
PORTLAND WX BUOY 2200   63 64  210/  6/  6 1015.6R   2/ 6
WELLS            2200   68 58  170/  2/  3 1014.8F
ISLE OF SHOALS   2100   65     120/  7/  7 1014.9R
JEFFREYS LEDGE   2200      68                N/A     3/ 8
CASHES LEDGE BUO 2200   69 69  180/  4/  6 1015.1R   3/ 9
$$

.............KEY..............
   WCI - WIND CHILL
   TC  - TEMPERATURE IN CELSIUS
   VSB - VISIBILITY IN MILES
   HX  - HEAT INDEX
   FAIR- INDICATES FEW OR NO CLOUDS BELOW 12,000 FT, WITH NO
         SIGNIFICANT WEATHER AND/OR OBSTRUCTIONS TO VISIBILITY.




USA.gov is the U.S. government's official web portal to all federal, state and local government web resources and services.